Regional Weather Roundup
Issued by NWS Little Rock, AR

Home | Current Version | Previous Version | Graphics & Text | Print | Product List | Glossary On
Versions: 1 2 3 4 5 6 7 8 9 10 11 12 13 14 15 16 17 18 19 20 21 22 23 24 25 26 27 28 29 30 31 32 33 34 35 36 37 38 39 40 41 42 43 44 45 46 47 48 49 50
000
ASUS44 KLZK 260105
RWRLZK

WEATHER ROUNDUP FOR ARKANSAS
NATIONAL WEATHER SERVICE LITTLE ROCK AR
800 PM CDT SAT APR 25 2015

NOTE: "FAIR" INDICATES FEW OR NO CLOUDS BELOW 12,000 FEET WITH NO
SIGNIFICANT WEATHER AND/OR OBSTRUCTIONS TO VISIBILITY.

ARZ001-003-010-029-260200-
NORTHWEST ARKANSAS

CITY           SKY/WX    TMP DP  RH WIND       PRES   REMARKS
FAYETTEVILLE   CLEAR     71  50  47 W7        29.62R
FORT SMITH     CLEAR     76  53  44 SW6       29.59R
HARRISON       PTCLDY    71  50  47 NW6       29.61R
BENTONVILLE    CLEAR     72  52  49 N10       29.64R
ROGERS         CLEAR     70  55  59 N9        29.64R
SILOAM SPGS    CLEAR     70  52  52 N12       29.65R
HIGHFILL       CLEAR     69  53  56 NW9       29.63R
SPRINGDALE     CLEAR     73  52  46 W14       29.64R
$$

ARZ004-005-016-260200-
NORTH CENTRAL ARKANSAS

CITY           SKY/WX    TMP DP  RH WIND       PRES   REMARKS
BATESVILLE     CLEAR     75  52  43 SW9       29.56R
FLIPPIN        PTCLDY    75  48  38 W7        29.56R
MTN HOME       MOCLDY    72  50  45 VRB3      29.57R
$$

ARZ040-041-260200-
WEST CENTRAL ARKANSAS

CITY           SKY/WX    TMP DP  RH WIND       PRES   REMARKS
MENA           CLEAR     77  50  38 SW5       29.64R
MOUNT IDA      CLEAR     75  51  43 CALM      29.61R
$$

ARZ009-017-025-026-028-260200-
NORTHEAST ARKANSAS

CITY           SKY/WX    TMP DP  RH WIND       PRES   REMARKS
CORNING          N/A     73  55  53 NW7       29.54R
JONESBORO      CLEAR     71  57  61 SW9       29.53R
NEWPORT        CLEAR     76  54  46 SW9       29.56R
WALNUT RIDGE   CLEAR     73  55  53 W6        29.54R
BLYTHEVILLE    CLEAR     72  64  76 SW9       29.54R
$$

ARZ022-023-033-042-044-260200-
CENTRAL ARKANSAS

CITY           SKY/WX    TMP DP  RH WIND       PRES   REMARKS
LITTLE ROCK    CLEAR     77  50  38 SW7       29.58R
N LITTLE ROCK  CLEAR     75  57  53 W5        29.58R
JACKSONVILLE   CLEAR     71  58  63 W2        29.57R
SEARCY         CLEAR     74  57  55 CALM      29.58R
HOT SPRINGS    CLEAR     75  52  44 SW7       29.61R
RUSSELLVILLE   CLEAR     75  53  46 W6        29.58R
CLINTON        FAIR      75  54  46 SW3       29.59R
$$

ARZ036-260200-
EAST ARKANSAS

CITY           SKY/WX    TMP DP  RH WIND       PRES   REMARKS
WEST MEMPHIS   CLEAR     74  63  68 SW6       29.55R
$$

ARZ050-053-066-070-073-260200-
SOUTHWEST ARKANSAS

CITY           SKY/WX    TMP DP  RH WIND       PRES   REMARKS
ARKADELPHIA    FAIR      75  64  68 SW5       29.62R
CAMDEN         CLEAR     73  52  46 CALM      29.62R
TEXARKANA      CLEAR     77  55  46 SW5       29.63R
EL DORADO      CLEAR     71  59  65 CALM      29.63R
DE QUEEN       CLEAR     75  52  44 SW3       29.61R
$$

ARZ056-057-069-260200-
SOUTHEAST ARKANSAS

CITY           SKY/WX    TMP DP  RH WIND       PRES   REMARKS
PINE BLUFF     CLEAR     77  53  43 SW7       29.60R
STUTTGART      CLEAR     75  57  53 SW12      29.58R
MONTICELLO     CLEAR     76  56  49 SW6       29.61R

$$





USA.gov is the U.S. government's official web portal to all federal, state and local government web resources and services.